Weather History for Kecskemet, Hungary

Change the Weather History Date:

Saturday, May 25, 2013

  Actual Average (LHBP) Record (LHBP)
Temperature  
Mean Temperature 56 °F -  
Max Temperature 62 °F 72 °F 86 °F (2003)
Min Temperature 50 °F 50 °F 33 °F (2004)
Degree Days  
Heating Degree Days 9    
Growing Degree Days 6 (Base 50)    
Moisture  
Dew Point 46 °F    
Average Humidity 69    
Maximum Humidity 94    
Minimum Humidity 48    
Precipitation  
Precipitation 0.00 in - - ()
Sea Level Pressure  
Sea Level Pressure 29.76 in    
Wind  
Wind Speed 5 mph ()    
Max Wind Speed 18 mph    
Max Gust Speed 27 mph    
Visibility 5.6 miles    
Events Rain    
Averages and records for this station are not official NWS values.
T = Trace of Precipitation, MM = Missing Value Source: Averaged Metar Reports

Daily Weather History Graph

Daily Weather History Graph

Search for Another Location

Airport:

Trip Planner

Search our weather history database for the weather conditions in past years. The results will help you decide how hot, cold, wet, or windy it might be!

Date:

Astronomy

May. 25, 2013 Rise Set
Actual Time 4:55 AM CEST 8:21 PM CEST
Civil Twilight 4:17 AM CEST 8:58 PM CEST
Nautical Twilight 3:28 AM CEST 9:48 PM CEST
Astronomical Twilight 2:24 AM CEST 10:53 PM CEST
Moon 8:48 PM CEST (5/25) 5:06 AM CEST (5/25)
Length of Visible Light 16h 40m
Length of Day
15h 25m
Full, 100% of the Moon is Illuminated
May 25
Full
May 31
Last Quarter
Jun 8
New
Jun 16
First Quarter
Jun 23
Full

Hourly Weather History & Observations

Time (CEST) Temp. Dew Point Humidity Pressure Visibility Wind Dir Wind Speed Gust Speed Precip Events Conditions
12:15 AM 53.6 °F 46.4 °F 77% 29.74 in - West 4.5 mph - N/A   Clear
12:18 AM 53.6 °F 46.4 °F 77% 29.74 in 6.2 mi West 2.2 mph - N/A Rain Light Rain
12:45 AM 53.6 °F 46.4 °F 77% 29.74 in 6.2 mi West 4.5 mph - N/A Rain Light Rain
1:15 AM 53.6 °F 46.4 °F 77% 29.74 in 6.2 mi WNW 4.5 mph - N/A Rain Light Rain
1:45 AM 53.6 °F 48.2 °F 82% 29.74 in - WNW 4.5 mph - N/A   Clear
2:15 AM 53.6 °F 48.2 °F 82% 29.74 in 6.2 mi Calm Calm - N/A Rain Light Rain
2:45 AM 53.6 °F 48.2 °F 82% 29.74 in 6.2 mi ESE 2.2 mph - N/A Rain Light Rain
3:15 AM 53.6 °F 48.2 °F 82% 29.74 in - SW 2.2 mph - N/A   Clear
3:45 AM - - N/A% - 3.1 mi Variable 4.5 mph - N/A Rain Rain
4:15 AM 51.8 °F 48.2 °F 88% 29.74 in 5.0 mi SW 4.5 mph - N/A   Unknown
4:45 AM 53.6 °F 48.2 °F 82% 29.74 in 5.0 mi SSW 2.2 mph - N/A   Unknown
5:15 AM 53.6 °F 48.2 °F 82% 29.74 in 5.0 mi SW 4.5 mph - N/A   Unknown
5:45 AM 51.8 °F 48.2 °F 88% 29.74 in 5.0 mi SW 4.5 mph - N/A   Unknown
6:15 AM 53.6 °F 48.2 °F 82% 29.74 in 5.0 mi West 2.2 mph - N/A   Unknown
6:45 AM - - N/A% - 5.0 mi WSW 4.5 mph - N/A Rain Rain Showers
7:15 AM 53.6 °F 46.4 °F 77% 29.74 in 5.0 mi West 6.7 mph - N/A   Unknown
7:45 AM 53.6 °F 46.4 °F 77% 29.74 in 5.0 mi West 4.5 mph - N/A   Unknown
8:15 AM 53.6 °F 46.4 °F 77% 29.77 in 5.0 mi West 6.7 mph - N/A   Mostly Cloudy
8:45 AM 53.6 °F 46.4 °F 77% 29.77 in 5.0 mi West 6.7 mph - N/A   Mostly Cloudy
9:15 AM 57.2 °F 48.2 °F 72% 29.77 in 5.0 mi South 4.5 mph - N/A   Scattered Clouds
9:45 AM - - N/A% - 6.2 mi SW 8.9 mph - N/A   Mostly Cloudy
10:00 AM - - N/A% - 6.2 mi SW 8.9 mph - N/A   Mostly Cloudy
10:15 AM 59.0 °F 46.4 °F 63% 29.77 in 6.2 mi SSW 6.7 mph - N/A   Mostly Cloudy
10:45 AM 60.8 °F 44.6 °F 55% 29.77 in 6.2 mi SSW 6.7 mph - N/A   Mostly Cloudy
11:15 AM 60.8 °F 44.6 °F 55% 29.77 in 6.2 mi SW 8.9 mph - N/A   Mostly Cloudy
11:45 AM 60.8 °F 44.6 °F 55% 29.77 in 6.2 mi SW 8.9 mph - N/A   Mostly Cloudy
12:15 PM 62.6 °F 44.6 °F 52% 29.77 in 6.2 mi WSW 8.9 mph - N/A   Mostly Cloudy
12:45 PM - - N/A% - 6.2 mi WSW 8.9 mph - N/A   Mostly Cloudy
1:15 PM 62.6 °F 44.6 °F 52% 29.77 in 6.2 mi WSW 6.7 mph - N/A   Mostly Cloudy
1:45 PM 62.6 °F 42.8 °F 48% 29.77 in 6.2 mi WSW 8.9 mph 26.8 mph N/A   Mostly Cloudy
1:55 PM 59.0 °F 42.8 °F 55% 29.77 in 5.0 mi West 17.9 mph - N/A Rain Light Rain Showers
2:15 PM 59.0 °F 46.4 °F 63% 29.77 in 6.2 mi WNW 8.9 mph - N/A   Scattered Clouds
2:45 PM 62.6 °F 44.6 °F 52% 29.77 in 6.2 mi West 6.7 mph 26.8 mph N/A   Scattered Clouds
3:15 PM 62.6 °F 44.6 °F 52% 29.77 in 6.2 mi West 8.9 mph - N/A   Mostly Cloudy
3:45 PM - - N/A% - 6.2 mi West 8.9 mph - N/A   Mostly Cloudy
4:15 PM 59.0 °F 44.6 °F 59% 29.77 in 6.2 mi WNW 8.9 mph - N/A   Mostly Cloudy
4:45 PM 62.6 °F 44.6 °F 52% 29.77 in 6.2 mi WNW 8.9 mph - N/A   Scattered Clouds
5:15 PM 62.6 °F 44.6 °F 52% 29.77 in 6.2 mi WNW 6.7 mph - N/A   Scattered Clouds
5:45 PM 62.6 °F 42.8 °F 48% 29.77 in 6.2 mi WNW 6.7 mph - N/A   Scattered Clouds
6:15 PM 62.6 °F 42.8 °F 48% 29.77 in 6.2 mi WNW 4.5 mph - N/A   Scattered Clouds
6:45 PM - - N/A% - 3.1 mi Variable 4.5 mph - N/A Rain Light Rain
7:15 PM 60.8 °F 44.6 °F 55% 29.77 in 6.2 mi NW 4.5 mph - N/A   Mostly Cloudy
7:45 PM 59.0 °F 44.6 °F 59% 29.77 in 6.2 mi WNW 6.7 mph - N/A   Mostly Cloudy
7:58 PM 59.0 °F 44.6 °F 59% 29.77 in 6.2 mi West 4.5 mph - N/A Rain Light Rain Showers
8:15 PM 59.0 °F 44.6 °F 59% 29.77 in 6.2 mi WSW 6.7 mph - N/A Rain Light Rain Showers
8:45 PM 53.6 °F 48.2 °F 82% 29.80 in 6.2 mi SW 4.5 mph - N/A Rain Light Rain Showers
9:15 PM 51.8 °F 46.4 °F 82% 29.77 in 6.2 mi SE 8.9 mph - N/A   Mostly Cloudy
9:45 PM - - N/A% - 1.9 mi Variable 4.5 mph - N/A Rain Light Rain
10:15 PM 50.0 °F 46.4 °F 87% 29.77 in - NNE 2.2 mph - N/A   Clear
10:45 PM 50.0 °F 48.2 °F 94% 29.77 in - Variable 2.2 mph - N/A   Clear
11:15 PM 51.8 °F 48.2 °F 88% 29.77 in - NW 2.2 mph - N/A   Clear
11:45 PM 51.8 °F 48.2 °F 88% 29.77 in - WNW 2.2 mph - N/A   Clear